INTELSAT 29E

Satellite information

Favourite Embed

Satellite Type and Status

PAYLOADIN ORBIT

Key statistics

Satellite INTELSAT 29E at a glance.

Uptime

3449

Days in orbit

Revolutions

≈ 1.0

Per day

Orbit

OTHER

Other

Inclination

5.6

Latest

Satellite identification and parameters

Extended collection of information and parameters for INTELSAT 29E.

Object identification

Identified? True

Debris? False

Object name: INTELSAT 29E

International designator: 2016-004A

Object number (NORAD): 41308

Object ID (CCSDS): 41308

Country: INTERNATIONAL TELECOMMUNICATIONS SATELLITE ORGANIZATION (INTELSAT) (ITSO)

Current information (Y/N): Y

RCS size: LARGE

Orbital parameters

Period: 1431.019 minutes

Inclination: 5.6301 deg

SMA: 42065.286 km

Apoapsis: 35707.224 km

Periapsis: 35667.077 km

RAAN: 74.5213 deg

Eccentricy: 0.0004772

Argument of periapsis: 40.8706 deg

Mean anomaly: 293.0119 deg

Mean motion: 1.00627572 rev/day

Mean motion (dot): -0.00000263 rev/day2

B* drag term: 0.0 1/REarth

Two-line elements (TLE)

Creation date: July 6, 2025, 6:05 p.m.

Reference frame: TEME

Reference center: EARTH

Epoch: July 6, 2025, 1:11 p.m. UTC

TLE line 0: 0 INTELSAT 29E

TLE line 1: 1 41308U 16004A 25187.54943715 -.00000263 00000-0 00000-0 0 9990

TLE line 2: 2 41308 5.6301 74.5213 0004772 40.8706 293.0119 1.00627572 34798

Live tracking on map

Real-time ground track for satellite INTELSAT 29E.

In-orbit conjunctions

There are no conjunctions computed for INTELSAT 29E, at the moment. Check back to stay up to date, as we update our databases every day.

Go to all conjunctions

Associated space launch

Covering North and South America Intelsat 29e will provide high bandwidth C and Ku-Band services for fixed and mobile customers. The satellite will be located at 50 degrees west in a geostationary orbit for its operational lifespan of 15 years. With over 3000kg of propellant the craft will weigh 6300kg when launched and will have 2 solar arrays to provide power. Intelsat 29e will launch on the Ariane 5 on its own, as no suitable secondary payload could be found

INTELSAT 29E was lifted into orbit during the mission ‘Ariane 5 ECA | Intelsat 29e’, on board a Ariane 5 ECA space rocket.

The launch took place on Jan. 27, 2016, 11:20 p.m. from Ariane Launch Area 3.

For more information about the launch, click the button.

Launch to space Ariane 5 ECA | Intelsat 29e
Ariane 5 ECA | Intelsat 29e

Agency: N/A

Status: Launch Successful

Launch date: Jan. 27, 2016, 11:20 p.m. UTC

Rocket: Ariane 5 ECA

Launch pad: Ariane Launch Area 3

Location: Guiana Space Centre, French Guiana

...

Latest news about this satellite

There are no fresh news available about this satellite. Check back as we update our databases every day.


Newsletter sign-up

Weekly statistics, charts and insights to help you stay on top of the space industry.